Location: Newark
(52.4787°S, 179.0532°W)
Time: 04:46:56
(UTC+00:00)

Transit 2A Rocket - Pass Details

Date: 27 November 2019
Orbit: 594 x 909 km, 66.7° (Epoch: 14 December)

Event Time Altitude Azimuth Distance (km) Brightness Sun altitude
Rises 22:53:30 0° 259° (W) 3,495 8.2 57.2°
Reaches altitude 10° 22:56:32 10° 245° (WSW) 2,590 7.6 57.4°
Maximum altitude 23:01:18 23° 193° (SSW) 1,843 6.9 57.7°
Drops below altitude 10° 23:06:09 10° 141° (SE) 2,626 7.7 57.9°
Sets 23:09:15 0° 127° (SE) 3,555 8.3 58.0°
